WAT93 LFLL-LEBL

Flight info

Callsign WAT93
Flight time 1h 1m
Altitude 29000
Route ROMAM A6 MTL DCT DIVKO DCT NILDU DCT BISBA
Aircraft A20N/M-SDE2E3FGHIRWXY/LB1

Departure

Time 2026-05-05 14:08
Airport Lyon Saint-Exupéry Airport (LFLL)

Arrival

Time 2026-05-05 15:09
Airport Josep Tarradellas Barcelona-El Prat Airport (LEBL)
Time Latitude Longitude Altitude Speed Heading
2026-05-05 13:36 45.72284 5.08160 795 ft 0 kts 276°
2026-05-05 13:56 45.72282 5.08180 795 ft 3 kts 276°
2026-05-05 13:56 45.72281 5.08217 795 ft 3 kts 258°
2026-05-05 13:57 45.72296 5.08242 795 ft 3 kts 204°
2026-05-05 13:57 45.72306 5.08246 795 ft 0 kts 184°
2026-05-05 14:01 45.72283 5.08250 795 ft 10 kts 158°
2026-05-05 14:01 45.72259 5.08348 796 ft 12 kts 74°
2026-05-05 14:02 45.72323 5.08408 796 ft 13 kts 355°
2026-05-05 14:02 45.72422 5.08395 794 ft 15 kts 354°
2026-05-05 14:02 45.72538 5.08381 791 ft 17 kts 355°
2026-05-05 14:02 45.72668 5.08366 788 ft 19 kts 355°
2026-05-05 14:03 45.72811 5.08348 785 ft 21 kts 354°
2026-05-05 14:03 45.72964 5.08329 782 ft 22 kts 356°
2026-05-05 14:03 45.73128 5.08314 778 ft 24 kts 355°
2026-05-05 14:03 45.73300 5.08291 774 ft 25 kts 355°
2026-05-05 14:04 45.73474 5.08270 773 ft 24 kts 354°
2026-05-05 14:04 45.73649 5.08248 770 ft 25 kts 355°
2026-05-05 14:04 45.73830 5.08227 766 ft 26 kts 355°
2026-05-05 14:04 45.74013 5.08213 766 ft 25 kts
2026-05-05 14:05 45.74182 5.08262 767 ft 24 kts 12°
2026-05-05 14:05 45.74348 5.08318 765 ft 24 kts 13°
2026-05-05 14:05 45.74483 5.08363 765 ft 18 kts 13°
2026-05-05 14:05 45.74571 5.08391 763 ft 8 kts 13°
2026-05-05 14:06 45.74629 5.08438 762 ft 9 kts 51°
2026-05-05 14:06 45.74636 5.08453 762 ft 2 kts 60°
2026-05-05 14:06 45.74647 5.08510 762 ft 11 kts 80°
2026-05-05 14:06 45.74614 5.08597 763 ft 11 kts 168°
2026-05-05 14:07 45.74522 5.08611 764 ft 27 kts 175°
2026-05-05 14:07 45.74062 5.08666 770 ft 102 kts 175°
2026-05-05 14:07 45.73136 5.08777 815 ft 157 kts 176°
2026-05-05 14:07 45.72004 5.08910 1326 ft 170 kts 176°
2026-05-05 14:08 45.70727 5.09061 1720 ft 200 kts 176°
2026-05-05 14:08 45.69299 5.09225 2422 ft 216 kts 176°
2026-05-05 14:08 45.67768 5.09407 3152 ft 226 kts 175°
2026-05-05 14:08 45.66168 5.09606 3887 ft 236 kts 175°
2026-05-05 14:09 45.64552 5.09807 4751 ft 240 kts 176°
2026-05-05 14:09 45.62889 5.10013 5656 ft 243 kts 176°
2026-05-05 14:09 45.61207 5.10219 6388 ft 253 kts 176°
2026-05-05 14:09 45.59397 5.10438 7047 ft 267 kts 176°
2026-05-05 14:10 45.57548 5.10661 7960 ft 270 kts 176°
2026-05-05 14:10 45.55691 5.10887 8901 ft 272 kts 176°
2026-05-05 14:10 45.53791 5.11119 9825 ft 275 kts 176°
2026-05-05 14:10 45.51962 5.11339 10567 ft 282 kts 176°
2026-05-05 14:11 45.49960 5.11579 11069 ft 300 kts 176°
2026-05-05 14:11 45.47819 5.11835 11518 ft 318 kts 176°
2026-05-05 14:11 45.45554 5.12106 11919 ft 337 kts 176°
2026-05-05 14:11 45.43169 5.12393 12375 ft 351 kts 176°
2026-05-05 14:12 45.40747 5.12685 13119 ft 356 kts 176°
2026-05-05 14:12 45.38263 5.12987 13954 ft 359 kts 176°
2026-05-05 14:12 45.35778 5.13287 14740 ft 362 kts 176°
2026-05-05 14:12 45.33279 5.13589 15492 ft 365 kts 176°
2026-05-05 14:13 45.30725 5.13896 16266 ft 368 kts 177°
2026-05-05 14:13 45.28156 5.14203 17000 ft 371 kts 177°
2026-05-05 14:13 45.25605 5.14508 17707 ft 374 kts 177°
2026-05-05 14:13 45.22978 5.14821 18416 ft 377 kts 177°
2026-05-05 14:14 45.20361 5.15134 19093 ft 379 kts 177°
2026-05-05 14:14 45.17729 5.15448 19747 ft 383 kts 178°
2026-05-05 14:14 45.15091 5.15762 20366 ft 386 kts 178°
2026-05-05 14:14 45.12397 5.15902 20961 ft 387 kts 185°
2026-05-05 14:15 45.09726 5.15354 21578 ft 387 kts 195°
2026-05-05 14:15 45.07176 5.14142 22169 ft 388 kts 205°
2026-05-05 14:15 45.04763 5.12511 22786 ft 389 kts 207°
2026-05-05 14:15 45.02313 5.10799 23351 ft 392 kts 207°
2026-05-05 14:16 45.00034 5.09199 23860 ft 394 kts 207°
2026-05-05 14:16 44.97591 5.07486 24412 ft 395 kts 208°
2026-05-05 14:16 44.95117 5.05754 24978 ft 395 kts 208°
2026-05-05 14:16 44.92648 5.04028 25642 ft 393 kts 208°
2026-05-05 14:17 44.90213 5.02328 26306 ft 390 kts 208°
2026-05-05 14:17 44.87764 5.00621 26995 ft 386 kts 208°
2026-05-05 14:17 44.85487 4.99037 27611 ft 383 kts 209°
2026-05-05 14:17 44.83082 4.97360 28108 ft 384 kts 209°
2026-05-05 14:18 44.80693 4.95695 28542 ft 385 kts 209°
2026-05-05 14:18 44.78281 4.94015 28843 ft 387 kts 209°
2026-05-05 14:18 44.73458 4.90668 28863 ft 386 kts 209°
2026-05-05 14:19 44.68663 4.87297 28866 ft 386 kts 210°
2026-05-05 14:19 44.63895 4.83918 28874 ft 385 kts 210°
2026-05-05 14:20 44.59114 4.80606 28869 ft 386 kts 206°
2026-05-05 14:20 44.53907 4.78498 28872 ft 393 kts 194°
2026-05-05 14:21 44.48412 4.78018 28869 ft 399 kts 187°
2026-05-05 14:21 44.42884 4.77983 28876 ft 398 kts 186°
2026-05-05 14:22 44.37365 4.77966 28873 ft 399 kts 186°
2026-05-05 14:22 44.31808 4.77951 28864 ft 398 kts 186°
2026-05-05 14:23 44.26313 4.77940 28871 ft 396 kts 187°
2026-05-05 14:23 44.20776 4.77929 28882 ft 395 kts 187°
2026-05-05 14:24 44.15289 4.77917 28879 ft 396 kts 187°
2026-05-05 14:24 44.09757 4.77905 28879 ft 396 kts 187°
2026-05-05 14:25 44.04258 4.77894 28880 ft 395 kts 187°
2026-05-05 14:25 43.98750 4.77884 28884 ft 396 kts 187°
2026-05-05 14:26 43.93256 4.77872 28873 ft 396 kts 187°
2026-05-05 14:26 43.87755 4.77860 28875 ft 395 kts 187°
2026-05-05 14:27 43.82260 4.77850 28884 ft 395 kts 187°
2026-05-05 14:27 43.76736 4.77838 28875 ft 396 kts 187°
2026-05-05 14:28 43.71240 4.77825 28873 ft 395 kts 187°
2026-05-05 14:28 43.65720 4.77815 28873 ft 396 kts 187°
2026-05-05 14:29 43.60380 4.77804 28881 ft 394 kts 187°
2026-05-05 14:29 43.54875 4.77792 28888 ft 395 kts 187°
2026-05-05 14:30 43.49374 4.77782 28894 ft 396 kts 188°
2026-05-05 14:30 43.43905 4.77770 28894 ft 396 kts 188°
2026-05-05 14:31 43.38385 4.77756 28897 ft 396 kts 187°
2026-05-05 14:31 43.32860 4.77746 28897 ft 396 kts 188°
2026-05-05 14:32 43.27346 4.77735 28891 ft 396 kts 188°
2026-05-05 14:32 43.21856 4.77721 28899 ft 398 kts 188°
2026-05-05 14:33 43.16313 4.77708 28902 ft 398 kts 188°
2026-05-05 14:33 43.10772 4.77692 28904 ft 397 kts 189°
2026-05-05 14:34 43.05536 4.76140 28907 ft 380 kts 208°
2026-05-05 14:34 43.01222 4.72266 28916 ft 373 kts 223°
2026-05-05 14:35 42.97306 4.67607 28897 ft 373 kts 224°
2026-05-05 14:35 42.93415 4.62945 28901 ft 372 kts 223°
2026-05-05 14:36 42.89547 4.58296 28892 ft 371 kts 224°
2026-05-05 14:36 42.85675 4.53646 28897 ft 372 kts 224°
2026-05-05 14:37 42.81801 4.48993 28893 ft 372 kts 224°
2026-05-05 14:37 42.77923 4.44340 28898 ft 371 kts 223°
2026-05-05 14:38 42.74059 4.39717 28890 ft 372 kts 224°
2026-05-05 14:38 42.70195 4.35098 28898 ft 371 kts 223°
2026-05-05 14:39 42.66297 4.30453 28893 ft 371 kts 223°
2026-05-05 14:39 42.62441 4.25860 28894 ft 371 kts 223°
2026-05-05 14:40 42.58550 4.21237 28902 ft 371 kts 223°
2026-05-05 14:40 42.54674 4.16636 28893 ft 370 kts 223°
2026-05-05 14:41 42.50830 4.12080 28890 ft 369 kts 223°
2026-05-05 14:41 42.46969 4.07514 28899 ft 369 kts 223°
2026-05-05 14:42 42.43100 4.02941 28902 ft 368 kts 223°
2026-05-05 14:42 42.39243 3.98395 28884 ft 368 kts 223°
2026-05-05 14:43 42.35382 3.93847 28902 ft 368 kts 223°
2026-05-05 14:43 42.31526 3.89317 28900 ft 368 kts 224°
2026-05-05 14:44 42.27664 3.84786 28891 ft 368 kts 223°
2026-05-05 14:44 42.23824 3.80287 28418 ft 367 kts 223°
2026-05-05 14:45 42.21902 3.78043 27857 ft 365 kts 224°
2026-05-05 14:45 42.19988 3.75811 27215 ft 365 kts 223°
2026-05-05 14:45 42.18074 3.73576 26533 ft 365 kts 223°
2026-05-05 14:45 42.16167 3.71344 25801 ft 366 kts 223°
2026-05-05 14:46 42.14238 3.69096 25279 ft 364 kts 223°
2026-05-05 14:46 42.12306 3.66848 25126 ft 375 kts 223°
2026-05-05 14:46 42.10318 3.64532 24974 ft 377 kts 223°
2026-05-05 14:46 42.08488 3.62288 24768 ft 364 kts 225°
2026-05-05 14:47 42.06753 3.59928 24748 ft 345 kts 228°
2026-05-05 14:47 42.05112 3.57643 24764 ft 340 kts 227°
2026-05-05 14:47 42.03462 3.55347 24802 ft 339 kts 228°
2026-05-05 14:47 42.01819 3.53062 24820 ft 339 kts 228°
2026-05-05 14:48 42.00193 3.50797 24831 ft 340 kts 228°
2026-05-05 14:48 41.98548 3.48507 24843 ft 340 kts 228°
2026-05-05 14:48 41.96921 3.46243 24826 ft 340 kts 228°
2026-05-05 14:48 41.95280 3.43956 24593 ft 342 kts 227°
2026-05-05 14:49 41.93638 3.41670 23962 ft 341 kts 227°
2026-05-05 14:49 41.91980 3.39369 23347 ft 340 kts 227°
2026-05-05 14:49 41.90356 3.37116 22746 ft 338 kts 227°
2026-05-05 14:49 41.88733 3.34864 22220 ft 335 kts 227°
2026-05-05 14:50 41.87130 3.32641 21696 ft 333 kts 227°
2026-05-05 14:50 41.85531 3.30425 21176 ft 331 kts 227°
2026-05-05 14:50 41.83937 3.28218 20658 ft 328 kts 227°
2026-05-05 14:50 41.82349 3.26019 20125 ft 327 kts 226°
2026-05-05 14:51 41.80773 3.23841 19619 ft 325 kts 226°
2026-05-05 14:51 41.79205 3.21672 19123 ft 323 kts 226°
2026-05-05 14:51 41.77705 3.19601 18655 ft 321 kts 226°
2026-05-05 14:51 41.76152 3.17459 18160 ft 319 kts 226°
2026-05-05 14:52 41.74624 3.15349 17690 ft 317 kts 226°
2026-05-05 14:52 41.73083 3.13227 17226 ft 315 kts 226°
2026-05-05 14:52 41.71572 3.11150 16772 ft 313 kts 226°
2026-05-05 14:52 41.70059 3.09066 16321 ft 310 kts 226°
2026-05-05 14:53 41.68586 3.07044 16104 ft 300 kts 226°
2026-05-05 14:53 41.67151 3.05074 15964 ft 288 kts 226°
2026-05-05 14:53 41.65709 3.03358 15890 ft 275 kts 218°
2026-05-05 14:53 41.64112 3.01968 15686 ft 273 kts 211°
2026-05-05 14:54 41.62416 3.00848 15188 ft 277 kts 208°
2026-05-05 14:54 41.60659 2.99750 14712 ft 279 kts 207°
2026-05-05 14:54 41.59021 2.98734 14308 ft 279 kts 207°
2026-05-05 14:54 41.57253 2.97641 13872 ft 279 kts 207°
2026-05-05 14:55 41.55503 2.96558 13445 ft 278 kts 207°
2026-05-05 14:55 41.53751 2.95476 13029 ft 278 kts 207°
2026-05-05 14:55 41.52002 2.94395 12607 ft 277 kts 207°
2026-05-05 14:55 41.50243 2.93308 12185 ft 277 kts 207°
2026-05-05 14:56 41.48499 2.92231 11782 ft 275 kts 206°
2026-05-05 14:56 41.46782 2.91171 11381 ft 275 kts 206°
2026-05-05 14:56 41.45039 2.90096 10981 ft 274 kts 206°
2026-05-05 14:56 41.43328 2.89041 10593 ft 273 kts 206°
2026-05-05 14:57 41.41610 2.87967 10199 ft 272 kts 209°
2026-05-05 14:57 41.40041 2.86606 9823 ft 269 kts 219°
2026-05-05 14:57 41.38693 2.84907 9806 ft 268 kts 226°
2026-05-05 14:57 41.37416 2.83114 9822 ft 269 kts 226°
2026-05-05 14:58 41.36137 2.81300 9746 ft 270 kts 226°
2026-05-05 14:58 41.34853 2.79478 9334 ft 271 kts 227°
2026-05-05 14:58 41.33576 2.77615 8932 ft 270 kts 232°
2026-05-05 14:58 41.32861 2.75340 8444 ft 274 kts 263°
2026-05-05 14:59 41.33057 2.72804 7947 ft 279 kts 279°
2026-05-05 14:59 41.33441 2.70296 7464 ft 281 kts 279°
2026-05-05 14:59 41.33800 2.67775 7072 ft 278 kts 278°
2026-05-05 14:59 41.34137 2.65260 6624 ft 271 kts 278°
2026-05-05 15:00 41.34452 2.62817 6171 ft 265 kts 278°
2026-05-05 15:00 41.34652 2.61231 5871 ft 265 kts 278°
2026-05-05 15:00 41.35048 2.58025 5276 ft 264 kts 278°
2026-05-05 15:00 41.35345 2.55604 4974 ft 263 kts 277°
2026-05-05 15:01 41.35632 2.53239 4589 ft 262 kts 278°
2026-05-05 15:01 41.35921 2.50855 4142 ft 263 kts 277°
2026-05-05 15:01 41.36210 2.48461 3698 ft 259 kts 277°
2026-05-05 15:01 41.36489 2.46151 3255 ft 249 kts 277°
2026-05-05 15:02 41.36753 2.43945 2980 ft 233 kts 277°
2026-05-05 15:02 41.37002 2.41871 2954 ft 216 kts 277°
2026-05-05 15:02 41.37231 2.39971 2942 ft 201 kts 277°
2026-05-05 15:02 41.37445 2.38179 2950 ft 194 kts 277°
2026-05-05 15:03 41.37654 2.36421 2964 ft 194 kts 277°
2026-05-05 15:03 41.37864 2.34652 2968 ft 193 kts 276°
2026-05-05 15:03 41.37916 2.32872 3006 ft 186 kts 259°
2026-05-05 15:03 41.37621 2.31308 3042 ft 166 kts 249°
2026-05-05 15:04 41.37241 2.29963 3027 ft 144 kts 246°
2026-05-05 15:04 41.36862 2.28745 2920 ft 142 kts 245°
2026-05-05 15:04 41.36465 2.27534 2726 ft 143 kts 244°
2026-05-05 15:04 41.36059 2.26331 2535 ft 143 kts 243°
2026-05-05 15:05 41.35243 2.23951 2154 ft 136 kts 243°
2026-05-05 15:05 41.34851 2.22813 1971 ft 135 kts 243°
2026-05-05 15:05 41.34464 2.21693 1798 ft 134 kts 243°
2026-05-05 15:06 41.34076 2.20566 1624 ft 134 kts 243°
2026-05-05 15:06 41.33686 2.19434 1447 ft 134 kts 243°
2026-05-05 15:06 41.33301 2.18313 1286 ft 134 kts 242°
2026-05-05 15:06 41.32922 2.17211 1118 ft 134 kts 242°
2026-05-05 15:07 41.32538 2.16094 931 ft 135 kts 243°
2026-05-05 15:07 41.32158 2.14957 822 ft 133 kts 244°
2026-05-05 15:07 41.31785 2.13828 676 ft 135 kts 243°
2026-05-05 15:07 41.31379 2.12672 480 ft 136 kts 242°
2026-05-05 15:08 41.30976 2.11538 280 ft 135 kts 242°
2026-05-05 15:08 41.30579 2.10415 69 ft 133 kts 243°
2026-05-05 15:08 41.30203 2.09319 15 ft 125 kts 243°
2026-05-05 15:08 41.29934 2.08550 19 ft 57 kts 244°
2026-05-05 15:09 41.29785 2.08271 21 ft 23 kts 215°
2026-05-05 15:09 41.29742 2.08231 22 ft 5 kts 214°
2026-05-05 15:09 41.29713 2.08205 21 ft 5 kts 214°
2026-05-05 15:09 41.29679 2.08174 20 ft 5 kts 214°
2026-05-05 15:10 41.29655 2.08153 20 ft 5 kts 214°
2026-05-05 15:10 41.29617 2.08118 19 ft 7 kts 214°
2026-05-05 15:10 41.29562 2.08084 18 ft 6 kts 189°
2026-05-05 15:10 41.29527 2.08095 17 ft 6 kts 162°
2026-05-05 15:11 41.29478 2.08124 17 ft 8 kts 154°
2026-05-05 15:11 41.29420 2.08161 17 ft 9 kts 154°
2026-05-05 15:11 41.29357 2.08197 17 ft 9 kts 176°
2026-05-05 15:11 41.29312 2.08145 16 ft 9 kts 244°
2026-05-05 15:12 41.29290 2.08081 16 ft 7 kts 245°
2026-05-05 15:12 41.29270 2.08022 16 ft 7 kts 244°
2026-05-05 15:12 41.29243 2.07947 15 ft 8 kts 246°
2026-05-05 15:12 41.29221 2.07880 15 ft 7 kts 243°
2026-05-05 15:13 41.29187 2.07866 14 ft 4 kts 165°
2026-05-05 15:13 41.29153 2.07885 14 ft 4 kts 153°
2026-05-05 15:13 41.29134 2.07897 14 ft 0 kts 154°